• In Italy
  • List of Countries
  • For 7 days
  • Water Temperature
  • Satellite Maps
  • Weather Map
  • Weather Widgets
  • user-avatar
    Login

    Hourly Weather Lucknow

    Today, 23 July, Monday

    Time Temperature Precipitation Wind Pressure Humidity
    00:00 +35°C° 0.3 mm 4 mps 736 mmHg 61%
    01:00 +34°C° 0.3 mm 4 mps 736 mmHg 63%
    02:00 +34°C° 0.3 mm 5 mps 736 mmHg 65%
    03:00 +33°C° 0.1 mm 5 mps 736 mmHg 66%
    04:00 +33°C° 0.1 mm 5 mps 736 mmHg 67%
    05:00 +33°C° 0.1 mm 5 mps 736 mmHg 68%
    06:00 +33°C° 0 mm 6 mps 736 mmHg 67%
    07:00 +33°C° 0 mm 7 mps 736 mmHg 65%
    08:00 +34°C° 0 mm 8 mps 737 mmHg 63%
    09:00 +35°C° 0 mm 8 mps 737 mmHg 60%
    10:00 +37°C° 0 mm 8 mps 737 mmHg 56%
    11:00 +38°C° 0 mm 8 mps 737 mmHg 53%
    12:00 +38°C° 0 mm 8 mps 736 mmHg 51%
    13:00 +39°C° 0 mm 8 mps 735 mmHg 49%
    14:00 +39°C° 0 mm 8 mps 735 mmHg 47%
    15:00 +39°C° 0 mm 7 mps 734 mmHg 48%
    16:00 +39°C° 0 mm 7 mps 734 mmHg 48%
    17:00 +39°C° 0 mm 6 mps 733 mmHg 48%
    18:00 +37°C° 0 mm 5 mps 734 mmHg 51%
    19:00 +36°C° 0 mm 4 mps 734 mmHg 54%
    20:00 +36°C° 0 mm 3 mps 734 mmHg 57%
    21:00 +35°C° 0.1 mm 4 mps 734 mmHg 58%
    22:00 +35°C° 0.1 mm 4 mps 734 mmHg 59%
    23:00 +35°C° 0.1 mm 4 mps 734 mmHg 60%

    Tomorrow, 24 July, Tuesday

    Time Temperature Precipitation Wind Pressure Humidity
    00:00 +34°C° 0.8 mm 4 mps 734 mmHg 64%
    01:00 +33°C° 0.8 mm 5 mps 734 mmHg 68%
    02:00 +33°C° 0.8 mm 5 mps 734 mmHg 71%
    03:00 +32°C° 0.4 mm 5 mps 734 mmHg 73%
    04:00 +32°C° 0.4 mm 5 mps 734 mmHg 75%
    05:00 +32°C° 0.4 mm 5 mps 734 mmHg 76%
    06:00 +33°C° 0 mm 6 mps 735 mmHg 73%
    07:00 +34°C° 0 mm 6 mps 735 mmHg 70%
    08:00 +34°C° 0 mm 7 mps 736 mmHg 66%
    09:00 +36°C° 0.6 mm 7 mps 736 mmHg 62%
    10:00 +38°C° 0.6 mm 7 mps 736 mmHg 58%
    11:00 +39°C° 0.6 mm 7 mps 736 mmHg 54%
    12:00 +39°C° 0.7 mm 7 mps 735 mmHg 53%
    13:00 +39°C° 0.7 mm 6 mps 734 mmHg 52%
    14:00 +39°C° 0.7 mm 6 mps 734 mmHg 51%
    15:00 +39°C° 0.6 mm 6 mps 734 mmHg 53%
    16:00 +37°C° 0.6 mm 5 mps 734 mmHg 55%
    17:00 +37°C° 0.6 mm 5 mps 734 mmHg 56%
    18:00 +36°C° 0 mm 4 mps 734 mmHg 60%
    19:00 +35°C° 0 mm 4 mps 734 mmHg 64%
    20:00 +34°C° 0 mm 3 mps 735 mmHg 68%
    21:00 +34°C° 0.1 mm 3 mps 735 mmHg 70%
    22:00 +34°C° 0.1 mm 3 mps 735 mmHg 72%
    23:00 +33°C° 0.1 mm 3 mps 735 mmHg 74%

    Day after tomorrow, 25 July, Wednesday

    Time Temperature Precipitation Wind Pressure Humidity
    00:00 +33°C° 1.1 mm 3 mps 735 mmHg 76%
    01:00 +33°C° 1.1 mm 3 mps 735 mmHg 77%
    02:00 +31°C° 1.1 mm 3 mps 735 mmHg 79%
    03:00 +31°C° 0.2 mm 3 mps 735 mmHg 80%
    04:00 +31°C° 0.2 mm 3 mps 735 mmHg 81%
    05:00 +30°C° 0.2 mm 3 mps 735 mmHg 82%
    06:00 +31°C° 0 mm 3 mps 735 mmHg 78%
    07:00 +33°C° 0 mm 3 mps 736 mmHg 74%
    08:00 +33°C° 0 mm 4 mps 736 mmHg 71%
    09:00 +34°C° 0.1 mm 4 mps 736 mmHg 67%
    10:00 +35°C° 0.1 mm 4 mps 736 mmHg 63%
    11:00 +36°C° 0.1 mm 4 mps 736 mmHg 59%
    12:00 +37°C° 0.1 mm 5 mps 736 mmHg 58%
    13:00 +37°C° 0.1 mm 5 mps 735 mmHg 56%
    14:00 +37°C° 0.1 mm 5 mps 734 mmHg 55%
    15:00 +37°C° 1.5 mm 5 mps 734 mmHg 57%
    16:00 +36°C° 1.5 mm 4 mps 734 mmHg 60%
    17:00 +36°C° 1.5 mm 4 mps 734 mmHg 62%
    18:00 +35°C° 1 mm 4 mps 734 mmHg 67%
    19:00 +34°C° 1 mm 3 mps 735 mmHg 71%
    20:00 +33°C° 1 mm 3 mps 735 mmHg 75%
    21:00 +33°C° 0.8 mm 3 mps 735 mmHg 76%
    22:00 +33°C° 0.8 mm 3 mps 735 mmHg 78%
    23:00 +31°C° 0.8 mm 3 mps 735 mmHg 79%

    26 July, Thursday

    Time Temperature Precipitation Wind Pressure Humidity
    00:00 +32°C° 1.6 mm 4 mps 735 mmHg 81%
    01:00 +32°C° 1.6 mm 4 mps 735 mmHg 82%
    02:00 +30°C° 1.6 mm 4 mps 735 mmHg 83%
    03:00 +30°C° 3.2 mm 4 mps 735 mmHg 84%
    04:00 +30°C° 3.2 mm 4 mps 735 mmHg 84%
    05:00 +30°C° 3.2 mm 4 mps 735 mmHg 85%
    06:00 +30°C° 1.6 mm 4 mps 736 mmHg 83%
    07:00 +32°C° 1.6 mm 4 mps 736 mmHg 81%
    08:00 +32°C° 1.6 mm 4 mps 737 mmHg 79%
    09:00 +33°C° 3.1 mm 4 mps 737 mmHg 77%
    10:00 +33°C° 3.1 mm 4 mps 737 mmHg 74%
    11:00 +34°C° 3.1 mm 5 mps 737 mmHg 72%
    12:00 +34°C° 1.8 mm 5 mps 736 mmHg 71%
    13:00 +34°C° 1.8 mm 5 mps 736 mmHg 70%
    14:00 +35°C° 1.8 mm 5 mps 735 mmHg 69%
    15:00 +35°C° 0.3 mm 5 mps 735 mmHg 69%
    16:00 +35°C° 0.3 mm 5 mps 735 mmHg 69%
    17:00 +34°C° 0.3 mm 4 mps 734 mmHg 69%
    18:00 +34°C° 0.3 mm 4 mps 735 mmHg 72%
    19:00 +33°C° 0.3 mm 3 mps 735 mmHg 74%
    20:00 +33°C° 0.3 mm 3 mps 735 mmHg 77%
    21:00 +31°C° 1.5 mm 3 mps 735 mmHg 79%
    22:00 +31°C° 1.5 mm 3 mps 735 mmHg 80%
    23:00 +31°C° 1.5 mm 3 mps 735 mmHg 82%

    27 July, Friday

    Time Temperature Precipitation Wind Pressure Humidity
    00:00 +30°C° 1.5 mm 3 mps 735 mmHg 82%
    01:00 +30°C° 1.5 mm 4 mps 734 mmHg 83%
    02:00 +30°C° 1.5 mm 4 mps 734 mmHg 83%
    03:00 +30°C° 0.3 mm 4 mps 734 mmHg 84%
    04:00 +30°C° 0.3 mm 3 mps 735 mmHg 84%
    05:00 +29°C° 0.3 mm 3 mps 735 mmHg 84%
    06:00 +30°C° 0.5 mm 4 mps 735 mmHg 82%
    07:00 +30°C° 0.5 mm 4 mps 736 mmHg 80%
    08:00 +32°C° 0.5 mm 5 mps 736 mmHg 77%
    09:00 +33°C° 1 mm 5 mps 736 mmHg 75%
    10:00 +33°C° 1 mm 5 mps 736 mmHg 72%
    11:00 +34°C° 1 mm 5 mps 736 mmHg 69%
    12:00 +34°C° 1.3 mm 4 mps 735 mmHg 68%
    13:00 +34°C° 1.3 mm 4 mps 735 mmHg 68%
    14:00 +35°C° 1.3 mm 3 mps 734 mmHg 67%
    15:00 +34°C° 0.4 mm 3 mps 734 mmHg 69%
    16:00 +34°C° 0.4 mm 3 mps 734 mmHg 70%
    17:00 +34°C° 0.4 mm 2 mps 734 mmHg 71%
    18:00 +32°C° 0 mm 2 mps 734 mmHg 74%
    19:00 +32°C° 0 mm 2 mps 734 mmHg 76%
    20:00 +31°C° 0 mm 2 mps 734 mmHg 79%
    21:00 +31°C° 0.5 mm 2 mps 735 mmHg 80%
    22:00 +31°C° 0.5 mm 2 mps 735 mmHg 81%
    23:00 +31°C° 0.5 mm 2 mps 735 mmHg 82%

    28 July, Saturday

    Time Temperature Precipitation Wind Pressure Humidity
    00:00 +31°C° 4 mm 2 mps 734 mmHg 82%
    01:00 +30°C° 4 mm 2 mps 734 mmHg 83%
    02:00 +30°C° 4 mm 3 mps 734 mmHg 84%
    03:00 +30°C° 1.5 mm 2 mps 734 mmHg 84%
    04:00 +30°C° 1.5 mm 2 mps 734 mmHg 85%
    05:00 +30°C° 1.5 mm 2 mps 734 mmHg 85%
    06:00 +30°C° 0.3 mm 3 mps 735 mmHg 84%
    07:00 +30°C° 0.3 mm 3 mps 735 mmHg 83%
    08:00 +30°C° 0.3 mm 3 mps 736 mmHg 83%
    09:00 +31°C° 0.7 mm 3 mps 736 mmHg 81%
    10:00 +31°C° 0.7 mm 3 mps 736 mmHg 80%
    11:00 +31°C° 0.7 mm 3 mps 736 mmHg 79%
    12:00 +33°C° 1.1 mm 3 mps 735 mmHg 76%
    13:00 +32°C° 1.1 mm 2 mps 735 mmHg 73%
    14:00 +34°C° 1.1 mm 2 mps 734 mmHg 71%
    15:00 +32°C° 0.8 mm 2 mps 734 mmHg 73%
    16:00 +32°C° 0.8 mm 2 mps 734 mmHg 76%
    17:00 +31°C° 0.8 mm 2 mps 734 mmHg 78%
    18:00 +31°C° 0.4 mm 2 mps 735 mmHg 80%
    19:00 +31°C° 0.4 mm 2 mps 735 mmHg 83%
    20:00 +30°C° 0.4 mm 2 mps 735 mmHg 85%
    21:00 +30°C° 1.1 mm 2 mps 735 mmHg 86%
    22:00 +30°C° 1.1 mm 2 mps 735 mmHg 86%
    23:00 +30°C° 1.1 mm 1 mps 735 mmHg 86%
    Show more